This is the latest recevied weather packets stored in our database for station/object N6DZK. If no packets are shown the sender has not sent any weather packets the latest 10 day(s).
| Time | Temp. | Humidity | Pressure | Rain* | Wind** | Luminosity | Snow |
|---|---|---|---|---|---|---|---|
| 1778030379 | 16.67° C | 72% | 1016.1 hPa | 0 mm | - | 67 W/m² | - |
| 1778030076 | 16.67° C | 72% | 1016.1 hPa | 0 mm | - | 83 W/m² | - |
| 1778029773 | 16.67° C | 72% | 1016.2 hPa | 0 mm | - | 90 W/m² | - |
| 1778029472 | 16.67° C | 72% | 1016.1 hPa | 0 mm | - | 93 W/m² | - |
| 1778029167 | 16.67° C | 72% | 1016.2 hPa | 0 mm | - | 95 W/m² | - |
| 1778028866 | 16.67° C | 71% | 1016.1 hPa | 0 mm | - | 98 W/m² | - |
| 1778028560 | 16.67° C | 71% | 1016.2 hPa | 0 mm | - | 110 W/m² | - |
| 1778028259 | 16.67° C | 71% | 1016 hPa | 0 mm | - | 113 W/m² | - |
| 1778027954 | 16.67° C | 71% | 1016.1 hPa | 0 mm | - | 102 W/m² | - |
| 1778027651 | 16.67° C | 71% | 1016 hPa | 0 mm | - | 83 W/m² | - |
| 1778027348 | 16.67° C | 70% | 1016.1 hPa | 0 mm | - | 78 W/m² | - |
| 1778027043 | 16.67° C | 70% | 1015.9 hPa | 0 mm | - | 88 W/m² | - |
| 1778026739 | 16.67° C | 70% | 1015.9 hPa | 0 mm | - | 115 W/m² | - |
| 1778026436 | 16.67° C | 70% | 1016.1 hPa | 0 mm | - | 100 W/m² | - |
| 1778026133 | 17.22° C | 69% | 1015.8 hPa | 0 mm | - | 91 W/m² | - |
| 1778025831 | 17.22° C | 69% | 1016 hPa | 0 mm | - | 99 W/m² | - |
| 1778025528 | 17.22° C | 69% | 1015.8 hPa | 0 mm | - | 95 W/m² | - |
| 1778025225 | 17.22° C | 69% | 1015.9 hPa | 0 mm | - | 99 W/m² | - |
| 1778024922 | 17.22° C | 67% | 1015.8 hPa | 0 mm | - | 108 W/m² | - |
| 1778024620 | 17.22° C | 67% | 1015.7 hPa | 0 mm | - | 128 W/m² | - |
| 1778024317 | 17.22° C | 67% | 1015.8 hPa | 0 mm | - | 152 W/m² | - |
| 1778024015 | 17.22° C | 68% | 1015.7 hPa | 0 mm | - | 161 W/m² | - |
| 1778023712 | 17.22° C | 66% | 1016 hPa | 0 mm | - | 177 W/m² | - |
| 1778023410 | 17.22° C | 66% | 1015.7 hPa | 0 mm | - | 169 W/m² | - |
| 1778023106 | 17.22° C | 68% | 1015.9 hPa | 0 mm | - | 162 W/m² | - |
* Rain latest hour (hover to see other rain measurements)
** Current wind speed in m/s (hover to see current wind gust speed)